• în Republica Moldova
  • Lista ţărilor
  • Pe 7 zile
  • Temperatura apei
  • Hartă satelitară
  • Meteo pe hartă
  • Widget-uri
  • user-avatar
    Intrare

    Meteo pe oră la Yevlakh

    Astăzi, 30 Martie, Joi

    Timp Temperatura Precipitaţii Vânt Presiune Umiditate
    00:00 +8°C° 0 mm 3 m/s 767 mmHg 69%
    01:00 +7°C° 0 mm 2 m/s 767 mmHg 72%
    02:00 +7°C° 0 mm 2 m/s 767 mmHg 75%
    03:00 +7°C° 0 mm 1 m/s 767 mmHg 77%
    04:00 +7°C° 0 mm 1 m/s 767 mmHg 79%
    05:00 +7°C° 0 mm 1 m/s 767 mmHg 80%
    06:00 +7°C° 0 mm 1 m/s 767 mmHg 81%
    07:00 +9°C° 0 mm 1 m/s 766 mmHg 72%
    08:00 +11°C° 0 mm 1 m/s 766 mmHg 64%
    09:00 +13°C° 0 mm 1 m/s 765 mmHg 56%
    10:00 +14°C° 0 mm 1 m/s 764 mmHg 51%
    11:00 +15°C° 0 mm 1 m/s 763 mmHg 47%
    12:00 +18°C° 0 mm 1 m/s 762 mmHg 43%
    13:00 +19°C° 0 mm 1 m/s 762 mmHg 41%
    14:00 +18°C° 0 mm 2 m/s 761 mmHg 38%
    15:00 +19°C° 0 mm 2 m/s 760 mmHg 36%
    16:00 +18°C° 0 mm 2 m/s 760 mmHg 40%
    17:00 +16°C° 0 mm 1 m/s 760 mmHg 44%
    18:00 +15°C° 0 mm 1 m/s 760 mmHg 49%
    19:00 +14°C° 0 mm 2 m/s 761 mmHg 50%
    20:00 +13°C° 0 mm 2 m/s 761 mmHg 51%
    21:00 +13°C° 0 mm 2 m/s 761 mmHg 53%
    22:00 +12°C° 0 mm 2 m/s 761 mmHg 52%
    23:00 +12°C° 0 mm 2 m/s 761 mmHg 50%

    Mâine, 31 Martie, Vineri

    Timp Temperatura Precipitaţii Vânt Presiune Umiditate
    00:00 +12°C° 0 mm 2 m/s 761 mmHg 49%
    01:00 +11°C° 0 mm 3 m/s 761 mmHg 48%
    02:00 +10°C° 0 mm 3 m/s 761 mmHg 47%
    03:00 +10°C° 0 mm 3 m/s 761 mmHg 46%
    04:00 +10°C° 0 mm 3 m/s 762 mmHg 46%
    05:00 +10°C° 0 mm 2 m/s 762 mmHg 46%
    06:00 +10°C° 0 mm 2 m/s 762 mmHg 46%
    07:00 +13°C° 0 mm 2 m/s 762 mmHg 41%
    08:00 +16°C° 0 mm 2 m/s 762 mmHg 36%
    09:00 +18°C° 0 mm 2 m/s 762 mmHg 31%
    10:00 +19°C° 0 mm 2 m/s 762 mmHg 28%
    11:00 +20°C° 0 mm 2 m/s 762 mmHg 26%
    12:00 +21°C° 0 mm 2 m/s 762 mmHg 23%
    13:00 +21°C° 0 mm 3 m/s 762 mmHg 25%
    14:00 +21°C° 0 mm 3 m/s 762 mmHg 26%
    15:00 +21°C° 0 mm 4 m/s 762 mmHg 27%
    16:00 +20°C° 0,1 mm 4 m/s 763 mmHg 35%
    17:00 +17°C° 0,1 mm 5 m/s 764 mmHg 43%
    18:00 +15°C° 0,1 mm 5 m/s 764 mmHg 51%
    19:00 +14°C° 0,3 mm 6 m/s 765 mmHg 58%
    20:00 +11°C° 0,3 mm 7 m/s 766 mmHg 66%
    21:00 +10°C° 0,3 mm 7 m/s 766 mmHg 73%
    22:00 +9°C° 0,6 mm 7 m/s 766 mmHg 76%
    23:00 +8°C° 0,6 mm 6 m/s 767 mmHg 79%

    Poimâine, 1 Aprilie, Sâmbătă

    Timp Temperatura Precipitaţii Vânt Presiune Umiditate
    00:00 +7°C° 0,6 mm 6 m/s 767 mmHg 81%
    01:00 +7°C° 0,3 mm 6 m/s 766 mmHg 82%
    02:00 +6°C° 0,3 mm 5 m/s 766 mmHg 82%
    03:00 +6°C° 0,3 mm 5 m/s 766 mmHg 82%
    04:00 +6°C° 0,2 mm 5 m/s 766 mmHg 82%
    05:00 +6°C° 0,2 mm 5 m/s 766 mmHg 82%
    06:00 +5°C° 0,2 mm 4 m/s 766 mmHg 82%
    07:00 +6°C° 0,3 mm 4 m/s 766 mmHg 80%
    08:00 +6°C° 0,3 mm 4 m/s 766 mmHg 78%
    09:00 +6°C° 0,3 mm 4 m/s 766 mmHg 76%
    10:00 +7°C° 0,3 mm 4 m/s 766 mmHg 74%
    11:00 +8°C° 0,3 mm 3 m/s 765 mmHg 73%
    12:00 +9°C° 0,3 mm 3 m/s 765 mmHg 71%
    13:00 +9°C° 0,2 mm 3 m/s 764 mmHg 71%
    14:00 +9°C° 0,2 mm 2 m/s 764 mmHg 70%
    15:00 +9°C° 0,2 mm 2 m/s 763 mmHg 70%
    16:00 +9°C° 0,1 mm 2 m/s 763 mmHg 74%
    17:00 +8°C° 0,1 mm 2 m/s 764 mmHg 77%
    18:00 +8°C° 0,1 mm 2 m/s 764 mmHg 81%
    19:00 +7°C° 0 mm 2 m/s 764 mmHg 85%
    20:00 +7°C° 0 mm 2 m/s 765 mmHg 88%
    21:00 +6°C° 0 mm 2 m/s 766 mmHg 92%
    22:00 +6°C° 0 mm 2 m/s 766 mmHg 93%
    23:00 +5°C° 0 mm 2 m/s 766 mmHg 94%

    2 Aprilie, Duminică

    Timp Temperatura Precipitaţii Vânt Presiune Umiditate
    00:00 +5°C° 0 mm 2 m/s 766 mmHg 96%
    01:00 +5°C° 0 mm 2 m/s 766 mmHg 95%
    02:00 +5°C° 0 mm 2 m/s 766 mmHg 95%
    03:00 +4°C° 0 mm 2 m/s 766 mmHg 95%
    04:00 +6°C° 0,1 mm 1 m/s 767 mmHg 95%
    05:00 +6°C° 0,1 mm 1 m/s 767 mmHg 94%
    06:00 +6°C° 0,1 mm 1 m/s 768 mmHg 93%
    07:00 +6°C° 0,3 mm 2 m/s 768 mmHg 89%
    08:00 +7°C° 0,3 mm 3 m/s 768 mmHg 84%
    09:00 +8°C° 0,3 mm 3 m/s 769 mmHg 80%
    10:00 +7°C° 0,4 mm 4 m/s 769 mmHg 78%
    11:00 +7°C° 0,4 mm 4 m/s 769 mmHg 77%
    12:00 +7°C° 0,4 mm 4 m/s 769 mmHg 75%
    13:00 +8°C° 0,2 mm 4 m/s 769 mmHg 73%
    14:00 +10°C° 0,2 mm 4 m/s 769 mmHg 70%
    15:00 +10°C° 0,2 mm 4 m/s 769 mmHg 67%
    16:00 +10°C° 0 mm 4 m/s 769 mmHg 70%
    17:00 +8°C° 0 mm 4 m/s 769 mmHg 74%
    18:00 +8°C° 0 mm 3 m/s 770 mmHg 77%
    19:00 +7°C° 0 mm 3 m/s 770 mmHg 79%
    20:00 +5°C° 0 mm 3 m/s 770 mmHg 81%
    21:00 +6°C° 0 mm 2 m/s 771 mmHg 83%
    22:00 +5°C° 0 mm 2 m/s 771 mmHg 83%
    23:00 +5°C° 0 mm 2 m/s 771 mmHg 83%

    3 Aprilie, Luni

    Timp Temperatura Precipitaţii Vânt Presiune Umiditate
    00:00 +6°C° 0 mm 1 m/s 770 mmHg 83%
    01:00 +5°C° 0 mm 1 m/s 770 mmHg 84%
    02:00 +4°C° 0 mm 1 m/s 770 mmHg 85%
    03:00 +4°C° 0 mm 1 m/s 769 mmHg 86%
    04:00 +4°C° 0 mm 1 m/s 769 mmHg 87%
    05:00 +4°C° 0 mm 1 m/s 769 mmHg 87%
    06:00 +4°C° 0 mm 1 m/s 769 mmHg 87%
    07:00 +6°C° 0 mm 1 m/s 769 mmHg 78%
    08:00 +8°C° 0 mm 1 m/s 768 mmHg 69%
    09:00 +10°C° 0 mm 1 m/s 768 mmHg 60%
    10:00 +12°C° 0 mm 1 m/s 767 mmHg 55%
    11:00 +13°C° 0 mm 1 m/s 766 mmHg 51%
    12:00 +15°C° 0 mm 1 m/s 766 mmHg 46%
    13:00 +15°C° 0 mm 1 m/s 765 mmHg 44%
    14:00 +16°C° 0 mm 1 m/s 765 mmHg 42%
    15:00 +16°C° 0 mm 2 m/s 765 mmHg 40%
    16:00 +15°C° 0 mm 2 m/s 765 mmHg 46%
    17:00 +14°C° 0 mm 2 m/s 765 mmHg 51%
    18:00 +12°C° 0 mm 2 m/s 765 mmHg 56%
    19:00 +10°C° 0 mm 2 m/s 765 mmHg 60%
    20:00 +9°C° 0 mm 2 m/s 766 mmHg 64%
    21:00 +8°C° 0 mm 2 m/s 766 mmHg 68%
    22:00 +8°C° 0 mm 2 m/s 766 mmHg 71%
    23:00 +7°C° 0 mm 2 m/s 766 mmHg 74%

    4 Aprilie, Marţi

    Timp Temperatura Precipitaţii Vânt Presiune Umiditate
    00:00 +6°C° 0 mm 2 m/s 766 mmHg 77%
    01:00 +7°C° 0 mm 1 m/s 766 mmHg 79%
    02:00 +6°C° 0 mm 1 m/s 766 mmHg 81%
    03:00 +6°C° 0 mm 1 m/s 766 mmHg 83%
    04:00 +6°C° 0 mm 1 m/s 766 mmHg 82%
    05:00 +5°C° 0 mm 0 m/s 766 mmHg 82%
    06:00 +5°C° 0 mm 0 m/s 766 mmHg 82%
    07:00 +7°C° 0 mm 0 m/s 765 mmHg 72%
    08:00 +11°C° 0 mm 1 m/s 765 mmHg 62%
    09:00 +14°C° 0 mm 1 m/s 765 mmHg 52%
    10:00 +15°C° 0 mm 1 m/s 764 mmHg 46%
    11:00 +18°C° 0 mm 1 m/s 764 mmHg 41%
    12:00 +20°C° 0 mm 1 m/s 763 mmHg 35%
    13:00 +20°C° 0 mm 1 m/s 763 mmHg 33%
    14:00 +21°C° 0 mm 1 m/s 763 mmHg 31%
    15:00 +22°C° 0 mm 1 m/s 763 mmHg 29%
    16:00 +20°C° 0 mm 1 m/s 763 mmHg 34%
    17:00 +18°C° 0 mm 1 m/s 763 mmHg 39%
    18:00 +16°C° 0 mm 2 m/s 764 mmHg 45%
    19:00 +15°C° 0 mm 2 m/s 764 mmHg 48%
    20:00 +14°C° 0 mm 2 m/s 765 mmHg 51%
    21:00 +13°C° 0 mm 2 m/s 765 mmHg 54%
    22:00 +12°C° 0 mm 2 m/s 765 mmHg 57%
    23:00 +10°C° 0 mm 2 m/s 765 mmHg 61%
    Arată mai mult